Location: Unspecified
(47.9110°N, 14.3980°E)
Time: 10:45:30
(UTC+00:00)

Cosmos 1980 Rocket - Pass Details

Date: 06 August 2020
Orbit: 829 x 849 km, 71.0° (Epoch: 20 September)

Event Time Altitude Azimuth Distance (km) Brightness Sun altitude
Rises 19:23:40 0° 336° (NNW) 3,424 6.5 -8.6°
Reaches altitude 10° 19:26:26 10° 347° (NNW) 2,483 5.4 -8.9°
Maximum altitude 19:31:26 30° 48° (NE) 1,468 3.4 -9.6°
Enters shadow 19:36:08 11° 108° (ESE) 2,384 4.0 -10.2°
